Year,Month,Day,Hour,Minute,Value (Times are PST for windgust in km/hr)
2021,07,09,00,08,3.20
2021,07,09,00,09,4.80
2021,07,09,00,10,1.60
2021,07,09,00,11,1.60
2021,07,09,00,12,1.60
2021,07,09,00,13,1.60
2021,07,09,00,26,1.60
2021,07,09,00,27,1.60
2021,07,09,00,28,1.60
2021,07,09,00,29,1.60
2021,07,09,00,30,1.60
2021,07,09,00,31,1.60
2021,07,09,00,32,1.60
2021,07,09,00,33,1.60
2021,07,09,00,35,1.60
2021,07,09,00,37,1.60
2021,07,09,00,38,1.60
2021,07,09,00,39,1.60
2021,07,09,00,40,1.60
2021,07,09,00,41,1.60
2021,07,09,00,42,1.60
2021,07,09,00,44,3.20
2021,07,09,00,45,1.60
2021,07,09,00,46,1.60
2021,07,09,00,47,1.60
2021,07,09,00,48,1.60
2021,07,09,01,05,1.60
2021,07,09,01,06,1.60
2021,07,09,01,07,3.20
2021,07,09,01,08,3.20
2021,07,09,01,09,3.20
2021,07,09,01,10,1.60
2021,07,09,01,11,1.60
2021,07,09,01,14,1.60
2021,07,09,01,26,1.60
2021,07,09,01,27,1.60
2021,07,09,01,28,1.60
2021,07,09,01,29,1.60
2021,07,09,01,30,1.60
2021,07,09,01,31,1.60
2021,07,09,01,35,1.60
2021,07,09,01,36,1.60
2021,07,09,01,40,1.60
2021,07,09,01,41,3.20
2021,07,09,01,42,3.20
2021,07,09,01,43,1.60
2021,07,09,01,44,1.60
2021,07,09,01,48,1.60
2021,07,09,01,50,1.60
2021,07,09,01,55,1.60
2021,07,09,01,56,1.60
2021,07,09,01,57,1.60
2021,07,09,01,58,1.60
2021,07,09,01,59,1.60
2021,07,09,02,00,1.60
2021,07,09,02,01,1.60
2021,07,09,02,02,1.60
2021,07,09,02,03,1.60
2021,07,09,02,04,1.60
2021,07,09,02,12,1.60
2021,07,09,02,13,1.60
2021,07,09,02,14,3.20
2021,07,09,02,15,1.60
2021,07,09,02,16,1.60
2021,07,09,02,17,1.60
2021,07,09,02,18,1.60
2021,07,09,02,19,1.60
2021,07,09,02,20,1.60
2021,07,09,02,21,1.60
2021,07,09,02,28,1.60
2021,07,09,02,29,1.60
2021,07,09,02,30,1.60
2021,07,09,02,31,1.60
2021,07,09,02,32,1.60
2021,07,09,02,33,1.60
2021,07,09,02,36,1.60
2021,07,09,02,37,3.20
2021,07,09,02,38,4.80
2021,07,09,02,39,4.80
2021,07,09,02,40,4.80
2021,07,09,02,41,3.20
2021,07,09,02,42,1.60
2021,07,09,02,47,1.60
2021,07,09,02,48,1.60
2021,07,09,02,49,1.60
2021,07,09,02,51,1.60
2021,07,09,03,29,1.60
2021,07,09,03,30,1.60
2021,07,09,03,47,1.60
2021,07,09,03,48,1.60
2021,07,09,03,49,1.60
2021,07,09,03,50,1.60
2021,07,09,03,51,1.60
2021,07,09,03,52,1.60
2021,07,09,03,58,1.60
2021,07,09,04,00,1.60
2021,07,09,04,20,1.60
2021,07,09,04,21,1.60
2021,07,09,04,22,1.60
2021,07,09,04,23,3.20
2021,07,09,04,24,1.60
2021,07,09,04,25,1.60
2021,07,09,04,26,1.60
2021,07,09,04,27,1.60
2021,07,09,04,28,1.60
2021,07,09,04,36,1.60
2021,07,09,04,37,3.20
2021,07,09,04,38,3.20
2021,07,09,04,39,4.80
2021,07,09,04,40,4.80
2021,07,09,04,41,3.20
2021,07,09,04,42,1.60
2021,07,09,04,43,1.60
2021,07,09,04,46,1.60
2021,07,09,04,47,1.60
2021,07,09,04,53,1.60
2021,07,09,04,57,1.60
2021,07,09,04,58,1.60
2021,07,09,04,59,1.60
2021,07,09,05,01,1.60
2021,07,09,05,13,1.60
2021,07,09,05,14,1.60
2021,07,09,05,15,1.60
2021,07,09,05,16,1.60
2021,07,09,05,17,1.60
2021,07,09,05,23,3.20
2021,07,09,05,24,3.20
2021,07,09,05,25,3.20
2021,07,09,05,26,1.60
2021,07,09,05,27,1.60
2021,07,09,06,21,1.60
2021,07,09,06,22,1.60
2021,07,09,06,23,1.60
2021,07,09,06,24,1.60
2021,07,09,06,31,1.60
2021,07,09,06,32,3.20
2021,07,09,06,33,1.60
2021,07,09,06,34,1.60
2021,07,09,06,35,1.60
2021,07,09,06,46,1.60
2021,07,09,06,47,1.60
2021,07,09,06,48,1.60
2021,07,09,06,49,1.60
2021,07,09,06,50,1.60
2021,07,09,06,52,1.60
2021,07,09,06,53,3.20
2021,07,09,06,54,1.60
2021,07,09,07,00,1.60
2021,07,09,07,01,1.60
2021,07,09,07,10,1.60
2021,07,09,07,11,1.60
2021,07,09,07,22,1.60
2021,07,09,07,23,1.60
2021,07,09,07,24,1.60
2021,07,09,07,29,1.60
2021,07,09,07,30,1.60
2021,07,09,07,31,1.60
2021,07,09,07,32,1.60
2021,07,09,07,35,1.60
2021,07,09,07,36,1.60
2021,07,09,07,41,1.60
2021,07,09,07,47,3.20
2021,07,09,07,48,3.20
2021,07,09,07,50,1.60
2021,07,09,07,51,1.60
2021,07,09,07,52,1.60
2021,07,09,07,53,1.60
2021,07,09,07,54,4.80
2021,07,09,07,55,8.10
2021,07,09,07,56,3.20
2021,07,09,07,57,3.20
2021,07,09,07,58,3.20
2021,07,09,07,59,1.60
2021,07,09,08,00,4.80
2021,07,09,08,01,3.20
2021,07,09,08,02,4.80
2021,07,09,08,03,4.80
2021,07,09,08,04,4.80
2021,07,09,08,05,4.80
2021,07,09,08,06,3.20
2021,07,09,08,08,1.60
2021,07,09,08,09,3.20
2021,07,09,08,10,3.20
2021,07,09,08,11,3.20
2021,07,09,08,12,4.80
2021,07,09,08,13,3.20
2021,07,09,08,14,1.60
2021,07,09,08,15,1.60
2021,07,09,08,17,1.60
2021,07,09,08,18,1.60
2021,07,09,08,19,1.60
2021,07,09,08,20,1.60
2021,07,09,08,21,1.60
2021,07,09,08,24,1.60
2021,07,09,08,25,1.60
2021,07,09,08,26,3.20
2021,07,09,08,27,1.60
2021,07,09,08,29,1.60
2021,07,09,08,31,1.60
2021,07,09,08,32,1.60
2021,07,09,08,35,1.60
2021,07,09,08,36,1.60
2021,07,09,08,38,1.60
2021,07,09,08,39,1.60
2021,07,09,08,40,1.60
2021,07,09,08,44,1.60
2021,07,09,08,45,1.60
2021,07,09,08,47,1.60
2021,07,09,08,49,1.60
2021,07,09,08,52,1.60
2021,07,09,08,53,1.60
2021,07,09,08,54,3.20
2021,07,09,08,55,4.80
2021,07,09,08,56,3.20
2021,07,09,08,57,1.60
2021,07,09,08,59,1.60
2021,07,09,09,00,1.60
2021,07,09,09,01,1.60
2021,07,09,09,03,1.60
2021,07,09,09,04,4.80
2021,07,09,09,05,1.60
2021,07,09,09,07,6.40
2021,07,09,09,08,4.80
2021,07,09,09,09,3.20
2021,07,09,09,10,1.60
2021,07,09,09,11,4.80
2021,07,09,09,12,3.20
2021,07,09,09,13,3.20
2021,07,09,09,14,8.10
2021,07,09,09,15,8.10
2021,07,09,09,16,11.30
2021,07,09,09,17,11.30
2021,07,09,09,18,9.60
2021,07,09,09,19,9.60
2021,07,09,09,20,8.10
2021,07,09,09,21,8.10
2021,07,09,09,22,4.80
2021,07,09,09,23,3.20
2021,07,09,09,24,4.80
2021,07,09,09,25,4.80
2021,07,09,09,26,8.10
2021,07,09,09,27,6.40
2021,07,09,09,28,8.10
2021,07,09,09,29,6.40
2021,07,09,09,30,6.40
2021,07,09,09,31,6.40
2021,07,09,09,32,4.80
2021,07,09,09,33,4.80
2021,07,09,09,34,9.60
2021,07,09,09,35,9.60
2021,07,09,09,36,8.10
2021,07,09,09,37,3.20
2021,07,09,09,38,9.60
2021,07,09,09,39,6.40
2021,07,09,09,40,8.10
2021,07,09,09,41,4.80
2021,07,09,09,42,4.80
2021,07,09,09,43,1.60
2021,07,09,09,44,8.10
2021,07,09,09,45,1.60
2021,07,09,09,46,4.80
2021,07,09,09,47,6.40
2021,07,09,09,48,6.40
2021,07,09,09,49,8.10
2021,07,09,09,50,3.20
2021,07,09,09,51,6.40
2021,07,09,09,52,6.40
2021,07,09,09,53,3.20
2021,07,09,09,54,3.20
2021,07,09,09,55,8.10
2021,07,09,09,56,3.20
2021,07,09,09,57,1.60
2021,07,09,09,58,1.60
2021,07,09,09,59,4.80
2021,07,09,10,00,4.80
2021,07,09,10,01,8.10
2021,07,09,10,02,3.20
2021,07,09,10,03,4.80
2021,07,09,10,04,4.80
2021,07,09,10,05,3.20
2021,07,09,10,06,1.60
2021,07,09,10,07,3.20
2021,07,09,10,08,3.20
2021,07,09,10,09,8.10
2021,07,09,10,10,4.80
2021,07,09,10,11,1.60
2021,07,09,10,12,1.60
2021,07,09,10,13,3.20
2021,07,09,10,14,4.80
2021,07,09,10,15,4.80
2021,07,09,10,16,4.80
2021,07,09,10,17,3.20
2021,07,09,10,18,3.20
2021,07,09,10,19,6.40
2021,07,09,10,20,4.80
2021,07,09,10,21,1.60
2021,07,09,10,22,3.20
2021,07,09,10,23,4.80
2021,07,09,10,24,3.20
2021,07,09,10,25,8.10
2021,07,09,10,26,4.80
2021,07,09,10,27,1.60
2021,07,09,10,28,8.10
2021,07,09,10,29,9.60
2021,07,09,10,30,8.10
2021,07,09,10,31,3.20
2021,07,09,10,32,8.10
2021,07,09,10,33,9.60
2021,07,09,10,34,8.10
2021,07,09,10,35,4.80
2021,07,09,10,36,8.10
2021,07,09,10,37,4.80
2021,07,09,10,38,4.80
2021,07,09,10,39,3.20
2021,07,09,10,40,3.20
2021,07,09,10,41,6.40
2021,07,09,10,42,8.10
2021,07,09,10,43,8.10
2021,07,09,10,44,8.10
2021,07,09,10,45,4.80
2021,07,09,10,46,1.60
2021,07,09,10,47,4.80
2021,07,09,10,48,6.40
2021,07,09,10,49,4.80
2021,07,09,10,50,1.60
2021,07,09,10,51,6.40
2021,07,09,10,52,4.80
2021,07,09,10,53,6.40
2021,07,09,10,54,6.40
2021,07,09,10,55,4.80
2021,07,09,10,56,8.10
2021,07,09,10,57,6.40
2021,07,09,10,58,8.10
2021,07,09,10,59,8.10
2021,07,09,11,00,8.10
2021,07,09,11,01,8.10
2021,07,09,11,02,6.40
2021,07,09,11,03,3.20
2021,07,09,11,04,6.40
2021,07,09,11,05,4.80
2021,07,09,11,06,11.30
2021,07,09,11,07,11.30
2021,07,09,11,08,9.60
2021,07,09,11,09,8.10
2021,07,09,11,10,8.10
2021,07,09,11,11,8.10
2021,07,09,11,12,8.10
2021,07,09,11,13,9.60
2021,07,09,11,14,8.10
2021,07,09,11,15,8.10
2021,07,09,11,16,9.60
2021,07,09,11,17,4.80
2021,07,09,11,18,8.10
2021,07,09,11,19,3.20
2021,07,09,11,20,8.10
2021,07,09,11,21,8.10
2021,07,09,11,22,8.10
2021,07,09,11,23,4.80
2021,07,09,11,24,1.60
2021,07,09,11,25,3.20
2021,07,09,11,26,3.20
2021,07,09,11,27,3.20
2021,07,09,11,28,1.60
2021,07,09,11,29,3.20
2021,07,09,11,30,4.80
2021,07,09,11,31,1.60
2021,07,09,11,32,1.60
2021,07,09,11,33,4.80
2021,07,09,11,34,4.80
2021,07,09,11,35,4.80
2021,07,09,11,36,8.10
2021,07,09,11,37,9.60
2021,07,09,11,38,9.60
2021,07,09,11,39,4.80
2021,07,09,11,40,8.10
2021,07,09,11,41,8.10
2021,07,09,11,42,4.80
2021,07,09,11,43,6.40
2021,07,09,11,44,3.20
2021,07,09,11,45,1.60
2021,07,09,11,46,11.30
2021,07,09,11,47,14.50
2021,07,09,11,48,8.10
2021,07,09,11,49,4.80
2021,07,09,11,50,6.40
2021,07,09,11,51,11.30
2021,07,09,11,52,9.60
2021,07,09,11,53,12.90
2021,07,09,11,54,11.30
2021,07,09,11,55,11.30
2021,07,09,11,56,9.60
2021,07,09,11,57,11.30
2021,07,09,11,58,12.90
2021,07,09,11,59,6.40
2021,07,09,12,00,11.30
2021,07,09,12,01,9.60
2021,07,09,12,02,12.90
2021,07,09,12,03,8.10
2021,07,09,12,04,1.60
2021,07,09,12,05,4.80
2021,07,09,12,06,8.10
2021,07,09,12,07,8.10
2021,07,09,12,08,8.10
2021,07,09,12,09,1.60
2021,07,09,12,10,3.20
2021,07,09,12,11,4.80
2021,07,09,12,12,4.80
2021,07,09,12,13,8.10
2021,07,09,12,14,4.80
2021,07,09,12,15,6.40
2021,07,09,12,16,3.20
2021,07,09,12,17,6.40
2021,07,09,12,18,3.20
2021,07,09,12,19,3.20
2021,07,09,12,20,3.20
2021,07,09,12,21,3.20
2021,07,09,12,22,1.60
2021,07,09,12,23,6.40
2021,07,09,12,24,3.20
2021,07,09,12,25,8.10
2021,07,09,12,26,9.60
2021,07,09,12,27,4.80
2021,07,09,12,28,3.20
2021,07,09,12,29,11.30
2021,07,09,12,30,9.60
2021,07,09,12,31,1.60
2021,07,09,12,32,1.60
2021,07,09,12,33,4.80
2021,07,09,12,34,3.20
2021,07,09,12,35,4.80
2021,07,09,12,36,4.80
2021,07,09,12,37,4.80
2021,07,09,12,38,3.20
2021,07,09,12,39,3.20
2021,07,09,12,40,3.20
2021,07,09,12,41,8.10
2021,07,09,12,42,12.90
2021,07,09,12,43,4.80
2021,07,09,12,44,8.10
2021,07,09,12,45,8.10
2021,07,09,12,46,8.10
2021,07,09,12,47,3.20
2021,07,09,12,48,8.10
2021,07,09,12,49,11.30
2021,07,09,12,50,8.10
2021,07,09,12,51,8.10
2021,07,09,12,52,4.80
2021,07,09,12,53,3.20
2021,07,09,12,54,3.20
2021,07,09,12,55,3.20
2021,07,09,12,56,6.40
2021,07,09,12,57,9.60
2021,07,09,12,58,8.10
2021,07,09,12,59,4.80
2021,07,09,13,00,4.80
2021,07,09,13,01,1.60
2021,07,09,13,02,3.20
2021,07,09,13,03,3.20
2021,07,09,13,04,3.20
2021,07,09,13,05,1.60
2021,07,09,13,06,4.80
2021,07,09,13,07,1.60
2021,07,09,13,09,3.20
2021,07,09,13,10,4.80
2021,07,09,13,11,3.20
2021,07,09,13,12,1.60
2021,07,09,13,13,3.20
2021,07,09,13,14,3.20
2021,07,09,13,15,3.20
2021,07,09,13,16,4.80
2021,07,09,13,17,8.10
2021,07,09,13,18,6.40
2021,07,09,13,19,9.60
2021,07,09,13,20,8.10
2021,07,09,13,21,11.30
2021,07,09,13,22,4.80
2021,07,09,13,23,8.10
2021,07,09,13,24,8.10
2021,07,09,13,25,8.10
2021,07,09,13,26,4.80
2021,07,09,13,27,3.20
2021,07,09,13,28,8.10
2021,07,09,13,29,3.20
2021,07,09,13,30,9.60
2021,07,09,13,31,8.10
2021,07,09,13,32,11.30
2021,07,09,13,33,4.80
2021,07,09,13,34,4.80
2021,07,09,13,35,8.10
2021,07,09,13,36,9.60
2021,07,09,13,37,8.10
2021,07,09,13,38,8.10
2021,07,09,13,39,9.60
2021,07,09,13,40,4.80
2021,07,09,13,41,6.40
2021,07,09,13,42,3.20
2021,07,09,13,43,6.40
2021,07,09,13,44,9.60
2021,07,09,13,45,8.10
2021,07,09,13,46,9.60
2021,07,09,13,47,8.10
2021,07,09,13,48,4.80
2021,07,09,13,49,8.10
2021,07,09,13,50,4.80
2021,07,09,13,51,4.80
2021,07,09,13,52,9.60
2021,07,09,13,53,9.60
2021,07,09,13,54,8.10
2021,07,09,13,55,8.10
2021,07,09,13,56,8.10
2021,07,09,13,57,6.40
2021,07,09,13,58,4.80
2021,07,09,13,59,3.20
2021,07,09,14,00,1.60
2021,07,09,14,01,6.40
2021,07,09,14,02,6.40
2021,07,09,14,03,4.80
2021,07,09,14,04,4.80
2021,07,09,14,05,4.80
2021,07,09,14,06,8.10
2021,07,09,14,07,9.60
2021,07,09,14,08,8.10
2021,07,09,14,09,4.80
2021,07,09,14,10,3.20
2021,07,09,14,11,8.10
2021,07,09,14,12,6.40
2021,07,09,14,13,3.20
2021,07,09,14,14,3.20
2021,07,09,14,15,3.20
2021,07,09,14,16,1.60
2021,07,09,14,18,3.20
2021,07,09,14,19,1.60
2021,07,09,14,20,3.20
2021,07,09,14,21,1.60
2021,07,09,14,22,1.60
2021,07,09,14,23,3.20
2021,07,09,14,24,3.20
2021,07,09,14,25,3.20
2021,07,09,14,26,1.60
2021,07,09,14,27,1.60
2021,07,09,14,28,6.40
2021,07,09,14,29,3.20
2021,07,09,14,30,3.20
2021,07,09,14,31,4.80
2021,07,09,14,32,3.20
2021,07,09,14,33,1.60
2021,07,09,14,34,1.60
2021,07,09,14,35,1.60
2021,07,09,14,36,3.20
2021,07,09,14,37,3.20
2021,07,09,14,38,3.20
2021,07,09,14,39,3.20
2021,07,09,14,41,1.60
2021,07,09,14,42,1.60
2021,07,09,14,43,6.40
2021,07,09,14,44,8.10
2021,07,09,14,45,4.80
2021,07,09,14,46,11.30
2021,07,09,14,47,9.60
2021,07,09,14,48,11.30
2021,07,09,14,49,9.60
2021,07,09,14,50,8.10
2021,07,09,14,51,8.10
2021,07,09,14,52,8.10
2021,07,09,14,53,11.30
2021,07,09,14,54,11.30
2021,07,09,14,55,4.80
2021,07,09,14,56,4.80
2021,07,09,14,57,6.40
2021,07,09,14,58,9.60
2021,07,09,14,59,8.10
2021,07,09,15,00,11.30
2021,07,09,15,01,4.80
2021,07,09,15,02,8.10
2021,07,09,15,03,11.30
2021,07,09,15,04,11.30
2021,07,09,15,05,9.60
2021,07,09,15,06,11.30
2021,07,09,15,07,11.30
2021,07,09,15,08,11.30
2021,07,09,15,09,8.10
2021,07,09,15,10,6.40
2021,07,09,15,11,4.80
2021,07,09,15,12,3.20
2021,07,09,15,14,6.40
2021,07,09,15,15,8.10
2021,07,09,15,16,8.10
2021,07,09,15,17,8.10
2021,07,09,15,18,9.60
2021,07,09,15,19,11.30
2021,07,09,15,20,8.10
2021,07,09,15,21,8.10
2021,07,09,15,22,11.30
2021,07,09,15,23,12.90
2021,07,09,15,24,8.10
2021,07,09,15,25,3.20
2021,07,09,15,26,4.80
2021,07,09,15,27,11.30
2021,07,09,15,28,6.40
2021,07,09,15,29,8.10
2021,07,09,15,30,4.80
2021,07,09,15,31,8.10
2021,07,09,15,32,4.80
2021,07,09,15,33,1.60
2021,07,09,15,34,8.10
2021,07,09,15,35,6.40
2021,07,09,15,36,11.30
2021,07,09,15,37,8.10
2021,07,09,15,38,8.10
2021,07,09,15,39,8.10
2021,07,09,15,40,11.30
2021,07,09,15,41,11.30
2021,07,09,15,42,11.30
2021,07,09,15,43,8.10
2021,07,09,15,44,6.40
2021,07,09,15,45,3.20
2021,07,09,15,46,9.60
2021,07,09,15,47,8.10
2021,07,09,15,48,4.80
2021,07,09,15,49,8.10
2021,07,09,15,50,4.80
2021,07,09,15,51,6.40
2021,07,09,15,52,8.10
2021,07,09,15,53,8.10
2021,07,09,15,54,9.60
2021,07,09,15,55,11.30
2021,07,09,15,56,4.80
2021,07,09,15,57,6.40
2021,07,09,15,58,4.80
2021,07,09,15,59,1.60
2021,07,09,16,00,6.40
2021,07,09,16,01,3.20
2021,07,09,16,02,3.20
2021,07,09,16,03,1.60
2021,07,09,16,04,1.60
2021,07,09,16,05,4.80
2021,07,09,16,06,4.80
2021,07,09,16,07,4.80
2021,07,09,16,08,4.80
2021,07,09,16,09,1.60
2021,07,09,16,10,4.80
2021,07,09,16,11,6.40
2021,07,09,16,12,4.80
2021,07,09,16,13,3.20
2021,07,09,16,14,6.40
2021,07,09,16,15,1.60
2021,07,09,16,16,3.20
2021,07,09,16,17,4.80
2021,07,09,16,18,4.80
2021,07,09,16,19,3.20
2021,07,09,16,20,1.60
2021,07,09,16,21,6.40
2021,07,09,16,22,11.30
2021,07,09,16,23,11.30
2021,07,09,16,24,11.30
2021,07,09,16,25,8.10
2021,07,09,16,26,8.10
2021,07,09,16,27,8.10
2021,07,09,16,28,3.20
2021,07,09,16,29,4.80
2021,07,09,16,30,1.60
2021,07,09,16,31,4.80
2021,07,09,16,32,1.60
2021,07,09,16,33,1.60
2021,07,09,16,34,4.80
2021,07,09,16,35,4.80
2021,07,09,16,36,3.20
2021,07,09,16,37,4.80
2021,07,09,16,38,3.20
2021,07,09,16,39,4.80
2021,07,09,16,40,8.10
2021,07,09,16,41,6.40
2021,07,09,16,42,3.20
2021,07,09,16,43,4.80
2021,07,09,16,44,1.60
2021,07,09,16,45,4.80
2021,07,09,16,46,3.20
2021,07,09,16,47,4.80
2021,07,09,16,48,3.20
2021,07,09,16,49,4.80
2021,07,09,16,50,4.80
2021,07,09,16,51,1.60
2021,07,09,16,52,3.20
2021,07,09,16,53,3.20
2021,07,09,16,55,3.20
2021,07,09,16,56,4.80
2021,07,09,16,57,8.10
2021,07,09,16,58,11.30
2021,07,09,16,59,9.60
2021,07,09,17,00,4.80
2021,07,09,17,01,4.80
2021,07,09,17,02,3.20
2021,07,09,17,03,4.80
2021,07,09,17,04,8.10
2021,07,09,17,05,8.10
2021,07,09,17,06,4.80
2021,07,09,17,07,4.80
2021,07,09,17,08,3.20
2021,07,09,17,09,1.60
2021,07,09,17,10,9.60
2021,07,09,17,11,3.20
2021,07,09,17,12,3.20
2021,07,09,17,13,1.60
2021,07,09,17,14,3.20
2021,07,09,17,15,3.20
2021,07,09,17,16,3.20
2021,07,09,17,17,9.60
2021,07,09,17,18,4.80
2021,07,09,17,19,3.20
2021,07,09,17,20,6.40
2021,07,09,17,21,4.80
2021,07,09,17,22,8.10
2021,07,09,17,23,8.10
2021,07,09,17,24,6.40
2021,07,09,17,25,6.40
2021,07,09,17,26,11.30
2021,07,09,17,27,6.40
2021,07,09,17,28,6.40
2021,07,09,17,29,4.80
2021,07,09,17,30,9.60
2021,07,09,17,31,6.40
2021,07,09,17,32,9.60
2021,07,09,17,33,8.10
2021,07,09,17,34,8.10
2021,07,09,17,35,8.10
2021,07,09,17,36,8.10
2021,07,09,17,37,4.80
2021,07,09,17,38,4.80
2021,07,09,17,39,6.40
2021,07,09,17,40,6.40
2021,07,09,17,41,8.10
2021,07,09,17,42,12.90
2021,07,09,17,43,11.30
2021,07,09,17,44,12.90
2021,07,09,17,45,8.10
2021,07,09,17,46,6.40
2021,07,09,17,47,11.30
2021,07,09,17,48,12.90
2021,07,09,17,49,11.30
2021,07,09,17,50,11.30
2021,07,09,17,51,11.30
2021,07,09,17,52,12.90
2021,07,09,17,53,14.50
2021,07,09,17,54,12.90
2021,07,09,17,55,8.10
2021,07,09,17,56,14.50
2021,07,09,17,57,11.30
2021,07,09,17,58,12.90
2021,07,09,17,59,6.40
2021,07,09,18,00,11.30
2021,07,09,18,01,12.90
2021,07,09,18,02,6.40
2021,07,09,18,03,6.40
2021,07,09,18,04,8.10
2021,07,09,18,05,9.60
2021,07,09,18,06,12.90
2021,07,09,18,07,11.30
2021,07,09,18,08,12.90
2021,07,09,18,09,12.90
2021,07,09,18,10,9.60
2021,07,09,18,11,11.30
2021,07,09,18,12,12.90
2021,07,09,18,13,11.30
2021,07,09,18,14,8.10
2021,07,09,18,15,12.90
2021,07,09,18,16,8.10
2021,07,09,18,17,8.10
2021,07,09,18,18,11.30
2021,07,09,18,19,12.90
2021,07,09,18,20,11.30
2021,07,09,18,21,9.60
2021,07,09,18,22,12.90
2021,07,09,18,23,6.40
2021,07,09,18,24,8.10
2021,07,09,18,25,6.40
2021,07,09,18,26,6.40
2021,07,09,18,27,9.60
2021,07,09,18,28,12.90
2021,07,09,18,29,11.30
2021,07,09,18,30,14.50
2021,07,09,18,31,8.10
2021,07,09,18,32,9.60
2021,07,09,18,33,11.30
2021,07,09,18,34,11.30
2021,07,09,18,35,9.60
2021,07,09,18,36,9.60
2021,07,09,18,37,11.30
2021,07,09,18,38,6.40
2021,07,09,18,39,11.30
2021,07,09,18,40,12.90
2021,07,09,18,41,11.30
2021,07,09,18,42,12.90
2021,07,09,18,43,16.10
2021,07,09,18,44,16.10
2021,07,09,18,45,11.30
2021,07,09,18,46,16.10
2021,07,09,18,47,12.90
2021,07,09,18,48,6.40
2021,07,09,18,49,6.40
2021,07,09,18,50,6.40
2021,07,09,18,51,14.50
2021,07,09,18,52,12.90
2021,07,09,18,53,11.30
2021,07,09,18,54,8.10
2021,07,09,18,55,8.10
2021,07,09,18,56,11.30
2021,07,09,18,57,11.30
2021,07,09,18,58,16.10
2021,07,09,18,59,9.60
2021,07,09,19,00,6.40
2021,07,09,19,01,6.40
2021,07,09,19,02,8.10
2021,07,09,19,03,11.30
2021,07,09,19,04,8.10
2021,07,09,19,05,11.30
2021,07,09,19,06,8.10
2021,07,09,19,07,12.90
2021,07,09,19,08,4.80
2021,07,09,19,09,14.50
2021,07,09,19,10,14.50
2021,07,09,19,11,16.10
2021,07,09,19,12,14.50
2021,07,09,19,13,11.30
2021,07,09,19,14,9.60
2021,07,09,19,15,11.30
2021,07,09,19,16,9.60
2021,07,09,19,17,9.60
2021,07,09,19,18,9.60
2021,07,09,19,19,9.60
2021,07,09,19,20,12.90
2021,07,09,19,21,14.50
2021,07,09,19,22,12.90
2021,07,09,19,23,12.90
2021,07,09,19,24,9.60
2021,07,09,19,25,11.30
2021,07,09,19,26,11.30
2021,07,09,19,27,14.50
2021,07,09,19,28,12.90
2021,07,09,19,29,9.60
2021,07,09,19,30,11.30
2021,07,09,19,31,11.30
2021,07,09,19,32,12.90
2021,07,09,19,33,12.90
2021,07,09,19,34,9.60
2021,07,09,19,35,14.50
2021,07,09,19,36,14.50
2021,07,09,19,37,14.50
2021,07,09,19,38,17.70
2021,07,09,19,39,11.30
2021,07,09,19,40,14.50
2021,07,09,19,41,14.50
2021,07,09,19,42,11.30
2021,07,09,19,43,11.30
2021,07,09,19,44,12.90
2021,07,09,19,45,16.10
2021,07,09,19,46,12.90
2021,07,09,19,47,11.30
2021,07,09,19,48,14.50
2021,07,09,19,49,14.50
2021,07,09,19,50,12.90
2021,07,09,19,51,16.10
2021,07,09,19,52,12.90
2021,07,09,19,53,11.30
2021,07,09,19,54,11.30
2021,07,09,19,55,14.50
2021,07,09,19,56,14.50
2021,07,09,19,57,16.10
2021,07,09,19,58,12.90
2021,07,09,19,59,16.10
2021,07,09,20,00,14.50
2021,07,09,20,01,14.50
2021,07,09,20,02,16.10
2021,07,09,20,03,16.10
2021,07,09,20,04,17.70
2021,07,09,20,05,17.70
2021,07,09,20,06,16.10
2021,07,09,20,07,16.10
2021,07,09,20,08,16.10
2021,07,09,20,09,11.30
2021,07,09,20,10,14.50
2021,07,09,20,11,16.10
2021,07,09,20,12,12.90
2021,07,09,20,13,14.50
2021,07,09,20,14,14.50
2021,07,09,20,15,16.10
2021,07,09,20,16,12.90
2021,07,09,20,17,9.60
2021,07,09,20,18,12.90
2021,07,09,20,19,14.50
2021,07,09,20,20,12.90
2021,07,09,20,21,14.50
2021,07,09,20,22,16.10
2021,07,09,20,23,11.30
2021,07,09,20,24,16.10
2021,07,09,20,25,11.30
2021,07,09,20,26,9.60
2021,07,09,20,27,8.10
2021,07,09,20,28,9.60
2021,07,09,20,29,12.90
2021,07,09,20,30,9.60
2021,07,09,20,31,8.10
2021,07,09,20,32,6.40
2021,07,09,20,33,8.10
2021,07,09,20,34,6.40
2021,07,09,20,35,11.30
2021,07,09,20,36,8.10
2021,07,09,20,37,8.10
2021,07,09,20,38,4.80
2021,07,09,20,39,4.80
2021,07,09,20,40,6.40
2021,07,09,20,41,8.10
2021,07,09,20,42,6.40
2021,07,09,20,43,6.40
2021,07,09,20,44,4.80
2021,07,09,20,45,4.80
2021,07,09,20,46,6.40
2021,07,09,20,47,4.80
2021,07,09,20,48,3.20
2021,07,09,20,49,6.40
2021,07,09,20,50,6.40
2021,07,09,20,51,4.80
2021,07,09,20,52,4.80
2021,07,09,20,53,3.20
2021,07,09,20,54,4.80
2021,07,09,20,55,3.20
2021,07,09,20,56,4.80
2021,07,09,20,57,4.80
2021,07,09,20,58,4.80
2021,07,09,20,59,1.60
2021,07,09,21,00,1.60
2021,07,09,21,02,1.60
2021,07,09,21,03,3.20
2021,07,09,21,04,1.60
2021,07,09,21,06,1.60
2021,07,09,21,08,1.60
2021,07,09,21,09,1.60
2021,07,09,22,13,3.20
2021,07,09,22,14,1.60
2021,07,09,22,15,1.60
2021,07,09,22,16,1.60
2021,07,09,22,17,1.60
2021,07,09,22,18,1.60
2021,07,09,22,19,3.20
2021,07,09,22,20,1.60
2021,07,09,22,21,3.20
2021,07,09,22,22,3.20
2021,07,09,22,23,3.20
2021,07,09,22,24,3.20
2021,07,09,22,25,4.80
2021,07,09,22,26,4.80
2021,07,09,22,27,4.80
2021,07,09,22,28,4.80
2021,07,09,22,29,4.80
2021,07,09,22,30,4.80
2021,07,09,22,31,4.80
2021,07,09,22,32,4.80
2021,07,09,22,33,4.80
2021,07,09,22,34,3.20
2021,07,09,22,35,1.60
2021,07,09,22,36,1.60
2021,07,09,22,37,1.60
2021,07,09,22,38,3.20
2021,07,09,22,39,1.60
2021,07,09,22,40,1.60
2021,07,09,22,41,3.20
2021,07,09,22,42,4.80
2021,07,09,22,43,4.80
2021,07,09,22,44,4.80
2021,07,09,22,45,4.80
2021,07,09,22,46,3.20
2021,07,09,22,47,3.20
2021,07,09,22,48,8.10
2021,07,09,22,49,4.80
2021,07,09,22,50,4.80
2021,07,09,22,51,6.40
2021,07,09,22,52,4.80
2021,07,09,22,53,3.20
2021,07,09,22,54,9.60
2021,07,09,22,55,8.10
2021,07,09,22,56,1.60
2021,07,09,22,57,3.20
2021,07,09,22,58,6.40
2021,07,09,22,59,6.40
2021,07,09,23,00,4.80
2021,07,09,23,01,6.40
2021,07,09,23,02,6.40
2021,07,09,23,03,8.10
2021,07,09,23,04,8.10
2021,07,09,23,05,6.40
2021,07,09,23,06,4.80
2021,07,09,23,07,8.10
2021,07,09,23,08,4.80
2021,07,09,23,09,4.80
2021,07,09,23,10,6.40
2021,07,09,23,11,4.80
2021,07,09,23,12,4.80
2021,07,09,23,13,3.20
2021,07,09,23,14,3.20
2021,07,09,23,15,4.80
2021,07,09,23,16,4.80
2021,07,09,23,17,3.20
2021,07,09,23,18,6.40
2021,07,09,23,19,4.80
2021,07,09,23,20,4.80
2021,07,09,23,21,6.40
2021,07,09,23,22,4.80
2021,07,09,23,23,4.80
2021,07,09,23,24,4.80
2021,07,09,23,25,3.20
2021,07,09,23,26,1.60
2021,07,09,23,27,1.60
2021,07,09,23,28,1.60
2021,07,09,23,29,1.60
2021,07,09,23,30,1.60
2021,07,09,23,34,3.20
2021,07,09,23,35,1.60
2021,07,09,23,36,1.60
2021,07,09,23,37,1.60
2021,07,09,23,40,3.20
2021,07,09,23,41,4.80
2021,07,09,23,42,4.80
2021,07,09,23,43,4.80
2021,07,09,23,44,6.40
2021,07,09,23,45,4.80
2021,07,09,23,46,6.40
2021,07,09,23,47,4.80
2021,07,09,23,48,4.80
2021,07,09,23,49,4.80
2021,07,09,23,50,3.20
2021,07,09,23,51,1.60
2021,07,09,23,59,3.20
